Mt. Pocono, PA

9:31 PM EST on December 15, 2019 (GMT -0500)
Pocono Mountains Municipal

Weather History for KMPO - October, 2019

Change the Weather History Date:

Tuesday, October 15, 2019

  Actual Average Record
Temperature  
Mean Temperature 46 °F 48 °F  
Max Temperature 57 °F 58 °F 77 °F (1989)
Min Temperature 34 °F 39 °F 21 °F (1907)
Degree Days  
Heating Degree Days 20 17  
Month to date heating degree days 219  
Since 1 July heating degree days 487  
Cooling Degree Days 0 0  
Month to date cooling degree days 0  
Year to date cooling degree days 313  
Moisture  
Dew Point 36 °F    
Average Humidity 71    
Maximum Humidity 100    
Minimum Humidity 40    
Precipitation  
Precipitation 0.00 in 0.14 in 3.15 in (1955)
Month to date precipitation 2.18  
Year to date precipitation 38.52  
Sea Level Pressure  
Sea Level Pressure 30.12 in    
Wind  
Wind Speed 6 mph ()    
Max Wind Speed 15 mph    
Max Gust Speed -    
Visibility 10.0 miles    
Events      
T = Trace of Precipitation, MM = Missing Value Source: Averaged Metar Reports

Daily Weather History Graph

Daily Weather History Graph

Search for Another Location

Airport or City:

Astronomy

Oct. 15, 2019 Rise Set
Actual Time 7:12 AM EDT 6:21 PM EDT
Civil Twilight 6:45 AM EDT 6:48 PM EDT
Nautical Twilight 6:13 AM EDT 7:20 PM EDT
Astronomical Twilight 5:41 AM EDT 7:52 PM EDT
Moon 7:39 PM EDT (10/15) 8:41 AM EDT (10/15)
Length of Visible Light 12h 03m
Length of Day
11h 08m
Full, 97% of the Moon is Illuminated
Oct 15
Full
Oct 21
Last Quarter
Oct 27
New
Nov 4
First Quarter
Nov 12
Full

Hourly Weather History & Observations

Time (EDT) Temp. Windchill Dew Point Humidity Pressure Visibility Wind Dir Wind Speed Gust Speed Precip Events Conditions
12:53 AM 44.1 °F 37.1 °F 37.0 °F 76% 30.08 in 10.0 mi NW 15.0 mph - N/A   Clear
1:53 AM 43.0 °F 35.7 °F 37.0 °F 80% 30.09 in 10.0 mi NW 15.0 mph - N/A   Clear
2:53 AM 42.1 °F 36.1 °F 36.0 °F 79% 30.10 in 10.0 mi NW 10.4 mph - N/A   Clear
3:53 AM 41.0 °F 35.2 °F 36.0 °F 82% 30.11 in 10.0 mi NW 9.2 mph - N/A   Clear
4:53 AM 37.0 °F 34.5 °F 36.0 °F 96% 30.13 in 10.0 mi WSW 3.5 mph - N/A   Clear
5:53 AM 35.1 °F 32.2 °F 35.1 °F 100% 30.14 in 10.0 mi WNW 3.5 mph - N/A   Clear
6:53 AM 34.0 °F - 34.0 °F 100% 30.17 in 10.0 mi Calm Calm - N/A   Clear
7:53 AM 34.0 °F - 34.0 °F 100% 30.19 in 10.0 mi Calm Calm - N/A   Clear
8:53 AM 42.1 °F 40.2 °F 39.0 °F 89% 30.20 in 10.0 mi West 3.5 mph - N/A   Clear
9:53 AM 46.9 °F - 37.0 °F 68% 30.19 in 10.0 mi NW 3.5 mph - N/A   Clear
10:53 AM 51.1 °F - 34.0 °F 52% 30.19 in 10.0 mi North - - N/A   Clear
11:53 AM 51.1 °F - 33.1 °F 50% 30.18 in 10.0 mi Calm Calm - N/A   Clear
12:53 PM 54.0 °F - 33.1 °F 45% 30.16 in 10.0 mi Variable 4.6 mph - N/A   Clear
1:53 PM 55.9 °F - 32.0 °F 40% 30.13 in 10.0 mi WSW 3.5 mph - N/A   Clear
2:53 PM 57.0 °F - 36.0 °F 45% 30.12 in 10.0 mi Variable 5.8 mph - N/A   Clear
3:53 PM 57.0 °F - 37.0 °F 47% 30.10 in 10.0 mi South 8.1 mph - N/A   Clear
4:53 PM 57.0 °F - 35.1 °F 44% 30.09 in 10.0 mi South 9.2 mph - N/A   Clear
5:53 PM 54.0 °F - 36.0 °F 51% 30.09 in 10.0 mi SSE 5.8 mph - N/A   Clear
6:53 PM 50.0 °F - 37.0 °F 61% 30.11 in 10.0 mi SSE 4.6 mph - N/A   Clear
7:53 PM 46.0 °F 43.9 °F 37.0 °F 71% 30.12 in 10.0 mi SSE 4.6 mph - N/A   Clear
8:53 PM 42.1 °F 39.2 °F 37.0 °F 82% 30.10 in 10.0 mi SE 4.6 mph - N/A   Clear
9:53 PM 43.0 °F 39.5 °F 37.0 °F 80% 30.08 in 10.0 mi SE 5.8 mph - N/A   Clear
10:53 PM 39.9 °F 35.1 °F 37.0 °F 89% 30.07 in 10.0 mi ESE 6.9 mph - N/A   Clear
11:53 PM 43.0 °F 38.8 °F 37.9 °F 82% 30.06 in 10.0 mi SE 6.9 mph - N/A   Clear